Location: Rochester
(43.1610°N, 77.6109°W)
Time: 08:39:37
(UTC-05:00)

CAS-4A - Pass Details

Date: 26 October 2021
Orbit: 529 x 539 km, 43.0° (Epoch: 04 December)

Event Time Altitude Azimuth Distance (km) Brightness Sun altitude
Rises 18:50:09 0° 281° (W) 2,689 ? -7.9°
Reaches altitude 10° 18:52:29 10° 274° (W) 1,796 ? -8.4°
Maximum altitude 18:56:20 40° 204° (SSW) 806 ? -9.1°
Drops below altitude 10° 19:00:11 10° 135° (SE) 1,787 ? -9.7°
Enters shadow 19:01:37 - 130° (SE) 2,330 ? -10.0°
